San Jose, Costa Rica

9:46 PM CST on July 25, 2017 (GMT -0600)
Juan Santamaria International

Weather History for MROC - May, 2013

Change the Weather History Date:

Thursday, May 2, 2013

  Actual Average Record
Temperature  
Mean Temperature 74 °F -  
Max Temperature 81 °F 81 °F 89 °F (1997)
Min Temperature 67 °F 65 °F 62 °F (2008)
Cooling Degree Days 9    
Growing Degree Days 24 (Base 50)    
Moisture  
Dew Point 67 °F    
Average Humidity 82    
Maximum Humidity 94    
Minimum Humidity 59    
Precipitation  
Precipitation 0.01 in 0.35 in - ()
Sea Level Pressure  
Sea Level Pressure 29.99 in    
Wind  
Wind Speed 4 mph ()    
Max Wind Speed 15 mph    
Max Gust Speed -    
Visibility 6.7 miles    
Events Fog , Rain    
Averages and records for this station are not official NWS values.
T = Trace of Precipitation, MM = Missing Value Source: Averaged Metar Reports

Daily Weather History Graph

Daily Weather History Graph

Search for Another Location

Airport or City:

Trip Planner

Search our weather history database for the weather conditions in past years. The results will help you decide how hot, cold, wet, or windy it might be!

Date:

Astronomy

May. 02, 2013 Rise Set
Actual Time 5:19 AM CST 5:48 PM CST
Civil Twilight 4:57 AM CST 6:10 PM CST
Nautical Twilight 4:31 AM CST 6:36 PM CST
Astronomical Twilight 4:05 AM CST 7:01 PM CST
Moon No Moon Rise 11:52 AM CST (5/2)
Length of Visible Light 13h 13m
Length of Day
12h 29m
Waning Gibbous, 47% of the Moon is Illuminated
May 2
Waning Gibbous
May 9
New
May 17
First Quarter
May 24
Full
May 31
Last Quarter

Hourly Weather History & Observations

Time (CST) Temp. Heat Index Dew Point Humidity Pressure Visibility Wind Dir Wind Speed Gust Speed Precip Events Conditions
12:00 AM 70 °F - 68 °F 91% 29.87 in 2 mi SW 3.5 mph - - Fog Partial Fog
12:00 AM 69.8 °F - 68.0 °F 94% 30.06 in 1.9 mi SW 3.5 mph - N/A   Mostly Cloudy
1:00 AM 69.8 °F - 68.0 °F 94% 30.04 in 6.2 mi WSW 2.3 mph - N/A   Mostly Cloudy
2:00 AM 69.8 °F - 66.2 °F 88% 30.03 in 6.2 mi WNW 4.6 mph - N/A   Mostly Cloudy
3:00 AM 69 °F - 67 °F 89% 29.86 in 9 mi Calm Calm - - Fog Light Fog
3:00 AM 69.8 °F - 66.2 °F 88% 30.01 in 6.2 mi Calm Calm - N/A   Mostly Cloudy
4:00 AM 68.0 °F - 66.2 °F 94% 30.01 in 6.2 mi ESE 2.3 mph - N/A   Mostly Cloudy
5:00 AM 68.0 °F - 66.2 °F 94% 30.02 in 6.2 mi North 3.5 mph - N/A   Mostly Cloudy
6:00 AM 68 °F - 65 °F 87% 29.88 in 12 mi ENE 2.3 mph - - Fog Light Fog
6:00 AM 68.0 °F - 64.4 °F 88% 30.02 in - ENE 2.3 mph - N/A   Clear
7:00 AM 71.6 °F - 66.2 °F 83% 30.02 in - ENE 3.5 mph - N/A   Clear
8:00 AM 78.8 °F - 66.2 °F 65% 30.04 in - NE 1.2 mph - N/A   Clear
8:20 AM 75.2 °F - 69.8 °F 83% 30.05 in 6.2 mi SW 6.9 mph - N/A   Mostly Cloudy
9:00 AM 79 °F - 67 °F 59% 29.86 in 12 mi WSW 6.9 mph - -   Scattered Clouds
9:00 AM 78.8 °F - 68.0 °F 69% 30.06 in 6.2 mi WSW 6.9 mph - N/A   Mostly Cloudy
10:00 AM 80.6 °F 83.2 °F 68.0 °F 65% 30.06 in 6.2 mi WSW 10.4 mph - N/A   Mostly Cloudy
11:00 AM 78.8 °F - 68.0 °F 69% 30.05 in 6.2 mi SW 11.5 mph - N/A   Mostly Cloudy
12:00 PM 79 °F - 69 °F 63% 29.86 in 12 mi WSW 10.4 mph - -   Overcast
12:00 PM 78.8 °F - 68.0 °F 69% 30.05 in 6.2 mi WSW 10.4 mph - N/A   Scattered Clouds
1:00 PM 80.6 °F 82.7 °F 66.2 °F 61% 30.02 in 6.2 mi SW 9.2 mph - N/A   Scattered Clouds
2:00 PM 71.6 °F - 68.0 °F 88% 30.04 in 6.2 mi WSW 4.6 mph - N/A Rain Light Rain
3:00 PM 79 °F - 67 °F 60% 29.84 in 12 mi WSW 15.0 mph - -   Overcast
3:00 PM 78.8 °F - 68.0 °F 69% 29.98 in 6.2 mi WSW 15.0 mph - N/A   Mostly Cloudy
4:00 PM 77.0 °F - 68.0 °F 74% 29.98 in 6.2 mi WSW 10.4 mph - N/A   Mostly Cloudy
5:00 PM 73.4 °F - 68.0 °F 83% 30.00 in 6.2 mi WSW 10.4 mph - N/A   Mostly Cloudy
6:00 PM 72 °F - 68 °F 85% 29.83 in 12 mi West 5.8 mph - -   Overcast
6:00 PM 71.6 °F - 68.0 °F 88% 30.00 in 6.2 mi West 5.8 mph - N/A   Mostly Cloudy
7:00 PM 71.6 °F - 68.0 °F 88% 30.01 in 6.2 mi NW 4.6 mph - N/A   Scattered Clouds
8:00 PM 71.6 °F - 68.0 °F 88% 30.02 in 6.2 mi WSW 2.3 mph - N/A   Mostly Cloudy
9:00 PM 71 °F - 69 °F 89% 29.84 in 9 mi SSW 2.3 mph - -   Mostly Cloudy
9:00 PM 71.6 °F - 68.0 °F 88% 30.03 in 6.2 mi SSW 2.3 mph - N/A   Scattered Clouds
9:20 PM 71.6 °F - 68.0 °F 88% 30.04 in 6.2 mi WSW 4.6 mph - N/A Rain Light Rain
10:00 PM 69.8 °F - 68.0 °F 94% 30.05 in 6.2 mi WSW 5.8 mph - N/A   Light Drizzle
11:00 PM 69.8 °F - 68.0 °F 94% 30.04 in 3.1 mi WSW 4.6 mph - N/A   Light Drizzle
11:20 PM 69.8 °F - 68.0 °F 94% 30.04 in 0.2 mi SW 4.6 mph - N/A Fog Fog